EW6950 Weather Reports


Display with metric or nautical units.
time (UTC)temp
F
wind
direction
speed
MPH
gust
MPH
rain 1hr
in
rain 24hr
in
rain mn
in
humidity
%
barometer
mb
20190119105703 34 112 1.0 10.0 0.00 0.01 0.00 80 1013.8
20190119104704 33 94 2.0 10.0 0.00 0.01 0.00 81 1013.8
20190119103704 33 103 1.0 7.0 0.00 0.01 0.00 84 1013.8
20190119102703 33 32 1.0 9.0 0.00 0.01 0.00 84 1014.0
20190119101703 32 84 1.0 8.0 0.00 0.01 0.00 85 1014.1
20190119100704 32 71 3.0 9.0 0.00 0.02 0.00 86 1014.2
20190119095705 31 39 2.0 8.0 0.00 0.02 0.00 86 1014.2
20190119094704 31 58 1.0 7.0 0.00 0.02 0.00 87 1014.2
20190119093703 31 52 1.0 8.0 0.00 0.02 0.00 89 1014.3
20190119092703 30 74 1.0 7.0 0.00 0.02 0.00 89 1014.3
20190119091703 30 88 1.0 6.0 0.00 0.02 0.00 90 1014.2
20190119090705 29 52 2.0 9.0 0.00 0.02 0.00 90 1014.3
20190119085703 29 55 1.0 6.0 0.00 0.02 0.00 91 1014.3
20190119084703 29 103 0.0 5.0 0.00 0.02 0.00 91 1014.3
20190119083703 28 57 1.0 5.0 0.00 0.02 0.00 92 1014.3
20190119082702 28 51 0.0 3.0 0.00 0.02 0.00 92 1014.4
20190119081703 27 76 1.0 3.0 0.00 0.02 0.00 92 1014.4
20190119080703 27 76 0.0 2.0 0.00 0.02 0.00 92 1014.4
20190119075703 27 76 1.0 3.0 0.00 0.02 0.00 92 1014.4
20190119073704 27 76 1.0 4.0 0.00 0.02 0.00 92 1014.3
20190119072703 27 78 2.0 4.0 0.00 0.02 0.00 92 1014.2
20190119071703 27 89 2.0 4.0 0.00 0.02 0.00 92 1014.3
20190119070703 27 70 1.0 3.0 0.00 0.02 0.00 93 1014.3
20190119065703 27 71 1.0 4.0 0.00 0.02 0.00 93 1014.3
20190119064703 27 66 2.0 4.0 0.00 0.02 0.00 93 1014.4
20190119063703 27 67 2.0 4.0 0.00 0.02 0.00 93 1014.3
20190119062703 26 67 2.0 5.0 0.00 0.02 0.00 93 1014.2
20190119061703 26 67 2.0 4.0 0.00 0.02 0.00 94 1014.3
20190119060703 26 61 0.0 4.0 0.00 0.02 0.00 94 1014.3
20190119055703 25 52 0.0 1.0 0.00 0.02 0.00 94 1014.3
20190119054703 25 52 0.0 0.0 0.00 0.02 0.00 94 1014.3
20190119053703 24 53 0.0 0.0 0.00 0.02 0.00 93 1014.3
20190119052703 24 53 0.0 0.0 0.00 0.02 0.00 94 1014.4
20190119051702 24 52 0.0 0.0 0.00 0.02 0.00 93 1014.4
20190119050703 24 53 0.0 0.0 0.00 0.02 0.00 94 1014.4
20190119045703 24 52 0.0 0.0 0.00 0.02 0.00 94 1014.5
20190119044702 24 52 0.0 0.0 0.00 0.02 0.00 94 1014.6
20190119043703 23 53 0.0 0.0 0.00 0.02 0.00 93 1014.7
20190119042703 23 53 0.0 0.0 0.00 0.02 0.00 93 1014.8
20190119041707 23 53 0.0 0.0 0.00 0.02 0.00 93 1014.8
20190119040703 23 53 0.0 0.0 0.00 0.02 0.00 93 1014.9
20190119035703 23 52 0.0 0.0 0.00 0.02 0.00 93 1015.0
20190119034702 23 53 0.0 0.0 0.00 0.02 0.00 93 1015.1
20190119033703 23 53 0.0 0.0 0.00 0.02 0.00 93 1015.0
20190119032703 24 53 0.0 0.0 0.00 0.02 0.00 93 1015.0
20190119031703 24 53 0.0 0.0 0.00 0.02 0.00 93 1015.0
20190119030702 24 53 0.0 0.0 0.00 0.02 0.00 93 1015.1
20190119025704 24 53 0.0 0.0 0.00 0.02 0.00 93 1015.2
20190119024702 23 53 0.0 0.0 0.00 0.02 0.00 92 1015.5
20190119023716 23 53 0.0 0.0 0.00 0.02 0.00 92 1015.6
20190119022712 24 53 0.0 0.0 0.00 0.02 0.00 92 1015.7
20190119021705 24 53 0.0 0.0 0.00 0.02 0.00 92 1015.8
20190119020704 24 53 0.0 0.0 0.00 0.02 0.00 92 1015.8
20190119015702 24 53 0.0 0.0 0.00 0.02 0.00 92 1015.9
20190119014703 25 53 0.0 0.0 0.00 0.02 0.00 92 1016.0
20190119013704 25 53 0.0 0.0 0.00 0.02 0.00 92 1016.1
20190119012703 26 53 0.0 0.0 0.00 0.02 0.00 92 1016.2
20190119011704 26 53 0.0 0.0 0.00 0.02 0.00 93 1016.2
20190119010703 25 53 0.0 0.0 0.00 0.02 0.00 93 1016.2
20190119005715 24 53 0.0 0.0 0.00 0.02 0.00 91 1016.2
20190119004711 24 53 0.0 0.0 0.00 0.02 0.00 91 1016.4
20190118225715 25 67 0.0 0.0 0.00 0.02 0.02 93 1016.9
20190118224716 25 67 0.0 0.0 0.00 0.02 0.02 93 1016.9
20190118223716 25 68 0.0 0.0 0.00 0.02 0.02 93 1016.9
20190118222716 25 68 0.0 1.0 0.00 0.02 0.02 93 1016.9
20190118221716 24 68 0.0 0.0 0.00 0.02 0.02 93 1016.9
20190118220716 24 68 0.0 0.0 0.00 0.02 0.02 92 1017.0
20190118215715 25 68 0.0 0.0 0.00 0.02 0.02 92 1017.1
20190118214716 25 68 0.0 0.0 0.00 0.02 0.02 92 1017.1
20190118213716 25 68 0.0 0.0 0.00 0.02 0.02 92 1017.1
20190118212715 26 68 0.0 0.0 0.00 0.02 0.02 92 1017.1
20190118211716 25 68 0.0 0.0 0.00 0.02 0.02 92 1017.1
20190118210717 25 68 0.0 0.0 0.00 0.02 0.02 92 1017.0
20190118205716 25 68 0.0 0.0 0.00 0.02 0.02 91 1017.0
20190118204716 25 68 0.0 0.0 0.00 0.02 0.02 91 1017.0
20190118203715 26 68 0.0 0.0 0.00 0.02 0.02 91 1017.0
20190118202716 26 68 0.0 0.0 0.00 0.02 0.02 91 1017.0
20190118201716 26 68 0.0 0.0 0.00 0.02 0.02 91 1016.9
20190118200715 26 68 0.0 0.0 0.00 0.02 0.02 91 1016.9
20190118195703 27 68 0.0 0.0 0.00 0.02 0.02 91 1016.9
20190118194704 26 68 0.0 0.0 0.00 0.02 0.02 91 1017.0
20190118193704 27 68 0.0 0.0 0.00 0.02 0.02 91 1017.0
20190118192704 27 68 0.0 0.0 0.00 0.02 0.02 91 1017.1
20190118191704 27 68 0.0 0.0 0.00 0.02 0.02 91 1017.1
20190118190704 27 68 0.0 0.0 0.00 0.02 0.02 90 1017.2
20190118185703 27 68 0.0 0.0 0.00 0.02 0.02 90 1017.2
20190118184704 27 68 0.0 0.0 0.00 0.02 0.02 89 1017.3
20190118183704 28 68 0.0 0.0 0.00 0.02 0.02 89 1017.3
20190118182703 28 68 0.0 1.0 0.00 0.02 0.02 89 1017.4
20190118181703 28 68 0.0 0.0 0.00 0.02 0.02 89 1017.3
20190118180703 28 69 0.0 0.0 0.00 0.02 0.02 88 1017.4
20190118175703 28 69 0.0 0.0 0.00 0.02 0.02 88 1017.3
20190118174703 29 69 0.0 0.0 0.00 0.02 0.02 87 1017.3
20190118173703 29 69 0.0 0.0 0.00 0.02 0.02 87 1017.4
20190118172703 29 69 0.0 0.0 0.00 0.02 0.02 86 1017.5
20190118171708 30 69 0.0 0.0 0.00 0.02 0.02 86 1017.4
20190118170703 30 69 0.0 0.0 0.00 0.02 0.02 85 1017.6
20190118165704 31 69 0.0 0.0 0.00 0.02 0.02 83 1017.6
20190118164703 32 69 0.0 0.0 0.00 0.02 0.02 83 1017.7
20190118163703 33 69 0.0 0.0 0.00 0.02 0.02 82 1017.8
20190118162703 33 69 0.0 0.0 0.00 0.02 0.02 81 1017.7
20190118161703 33 69 0.0 0.0 0.00 0.02 0.02 80 1017.8
20190118160704 34 69 0.0 1.0 0.00 0.02 0.02 80 1017.7
20190118155704 34 69 0.0 4.0 0.00 0.02 0.02 79 1017.8
20190118154703 34 63 0.0 0.0 0.00 0.02 0.02 78 1017.9
20190118153708 34 63 0.0 0.0 0.00 0.02 0.02 79 1017.9
20190118152703 34 63 0.0 1.0 0.00 0.02 0.02 79 1018.0
20190118151704 35 63 0.0 1.0 0.00 0.03 0.02 78 1018.0
20190118150703 35 63 0.0 0.0 0.00 0.03 0.02 77 1018.0
20190118145703 35 63 0.0 3.0 0.00 0.03 0.02 76 1018.1
20190118144703 35 63 0.0 0.0 0.00 0.03 0.02 77 1018.0
20190118143703 35 121 0.0 0.0 0.00 0.03 0.02 78 1018.1
20190118142707 34 121 0.0 0.0 0.00 0.03 0.02 80 1018.1
20190118141701 34 122 0.0 0.0 0.00 0.03 0.02 82 1018.1
20190118140703 35 115 0.0 0.0 0.00 0.03 0.02 82 1018.2
20190118135705 35 115 0.0 0.0 0.00 0.03 0.02 81 1018.1
20190118134704 36 113 0.0 2.0 0.00 0.04 0.02 81 1018.1
20190118133703 35 114 0.0 0.0 0.00 0.04 0.02 84 1018.1
20190118132703 34 124 0.0 2.0 0.00 0.07 0.02 86 1018.1
20190118131704 34 109 0.0 0.0 0.00 0.09 0.02 87 1018.1
20190118130703 34 107 0.0 0.0 0.00 0.09 0.02 89 1018.2
20190118125702 35 40 0.0 0.0 0.00 0.09 0.02 90 1018.3
20190118124703 34 45 0.0 0.0 0.00 0.09 0.02 91 1018.4
20190118123703 34 46 0.0 0.0 0.00 0.09 0.02 92 1018.5
20190118122703 35 252 0.0 0.0 0.00 0.09 0.02 93 1018.5
20190118121707 35 194 0.0 1.0 0.00 0.10 0.02 94 1018.5
20190118120702 34 109 0.0 0.0 0.00 0.11 0.02 95 1018.7
20190118115702 34 109 0.0 1.0 0.01 0.11 0.02 96 1018.7
20190118114700 34 109 0.0 4.0 0.01 0.11 0.02 96 1018.7
20190118113700 33 96 0.0 3.0 0.01 0.11 0.02 96 1018.8
20190118112657 33 92 0.0 0.0 0.01 0.11 0.02 96 1018.9
20190118111658 33 156 0.0 0.0 0.02 0.11 0.02 96 1019.0
20190118110657 33 239 0.0 0.0 0.02 0.11 0.02 96 1019.1